Weather Roundup
Issued by NWS Chicago, IL

Home | Current Version | Previous Version | Text Only | Print | Product List | Glossary On
Versions: 1 2 3 4 5 6 7 8 9 10 11 12 13 14 15 16 17 18 19 20 21 22 23 24 25 26 27 28 29 30 31 32 33 34 35 36 37 38 39 40 41 42 43 44 45 46 47 48 49 50
000
NZUS59 KLOT 261610
HRRLOT

CHICAGO AREA WEATHER ROUNDUP
NATIONAL WEATHER SERVICE CHICAGO/ROMEOVILLE IL
1000 AM CST WED NOV 26 2014

NOTE: "FAIR" INDICATES FEW OR NO CLOUDS BELOW 12,000 FEET WITH NO
SIGNIFICANT WEATHER AND/OR OBSTRUCTIONS TO VISIBILITY.

* THESE STATIONS ARE NOT UNDER NWS QUALITY CONTROL. THEY ALSO MAY NOT
  REPORT WEATHER SUCH AS PRECIPITATION OR FOG.

ILZ005-006-012>014-019>023-261700-
NORTHEAST ILLINOIS

CITY           SKY/WX    TMP DP  RH WIND       PRES   REMARKS
OHARE          CLOUDY    24  20  84 S5        30.15S FOG     WCI  18
MIDWAY         CLOUDY    27  20  75 SE10      30.16S WCI  17
AURORA         CLOUDY    25  19  78 SE9       30.15S HAZE    WCI  15
LANSING*       CLOUDY    25  20  80 E6        30.16S WCI  18
JOLIET*        CLOUDY    25  20  81 E9        30.15F WCI  15
WAUKEGAN       PTSUNNY   22  19  89 W5        30.15R FOG     WCI  16
DUPAGE AIRPORT PTSUNNY   23  19  85 SE10      30.14S WCI  12
WHEELING       CLOUDY    24  19  81 S5        30.17S HAZE    WCI  18
KANKAKEE*      CLOUDY   N/A N/A N/A E9        30.16F
MORRIS*        CLOUDY    26  23  89 E8        30.14S WCI  18
LEWIS AIRPORT* CLOUDY    25  20  82 SE7       30.14F WCI  17
NORTHERLY IS     N/A     27  22  81 SE9         N/A  WCI  18
$$

WIZ051-052-058>065-066-070>072-261700-
SOUTHEAST WISCONSIN

CITY           SKY/WX    TMP DP  RH WIND       PRES   REMARKS
MILWAUKEE      PTSUNNY   24  18  77 NW5       30.15S HAZE    WCI  18
KENOSHA*       PTSUNNY   21  19  92 W5        30.15S FOG     WCI  15
RACINE*        MOSUNNY   21  17  84 W6        30.17R FOG     WCI  13
BURLINGTON     PTSUNNY   18  17  96 CALM      30.14S FOG
WAUKESHA       MOSUNNY   18  16  93 CALM      30.15S FOG
WEST BEND      CLOUDY    23  19  86 S3        30.16R
$$

INZ001>003-010>013-019-020-261700-
NORTHWEST INDIANA

CITY           SKY/WX    TMP DP  RH WIND       PRES   REMARKS
GARY*          CLOUDY    27  19  74 SE9       30.17S WCI  17
MICHIGAN CITY* NOT AVBL
RENSSELAER*    NOT AVBL
VALPARAISO     CLOUDY    25  19  78 SE8       30.17S WCI  16
$$

LMZ740>746-261700-
SOUTHERN LAKE MICHIGAN

STATION/POSITION TIME  SKY/WX   TEMP WIND        PRES    VSBY
                                AIR  DIR/SP/G
                 (UTC)          (F)  (DEG/KT/KT) (MB)    (MI)
HARRISON CRIB    1600            27  130/ 10/ 14   N/A
BURNHAM HARBOR   1600            27  140/ 10/ 12   N/A
CALUMET HARBOR   1600            25  130/  5/ 10 1020.1R
BURNS HARBOR     NOT AVBL
MICHIGAN CITY    1600            25   50/  8/  9   N/A
$$

ABBREVIATIONS USED IN REMARKS
   TC - TEMPERATURE IN CELSIUS
  WCI - WIND CHILL INDEX
   HX - HEAT INDEX
  VSB - VISIBILITY
$$



USA.gov is the U.S. government's official web portal to all federal, state and local government web resources and services.